Location: Newark
(41.9364°N, 2.8061°E)
Time: 17:48:57
(UTC+00:00)

X-37B - Pass Details

Date: 08 August 2021
Orbit: 381 x 393 km, 45.0° (Epoch: 29 August)

Event Time Altitude Azimuth Distance (km) Brightness Sun altitude
Exits shadow 03:09:43 22° 297° (WNW) 890 2.2 -16.6°
Maximum altitude 03:11:23 44° 0° (N) 536 1.5 -16.4°
Drops below altitude 10° 03:14:25 10° 75° (ENE) 1,397 4.4 -15.9°
Sets 03:16:32 0° 82° (E) 2,250 5.5 -15.6°
